PRNPB SDJD-SBMT

Flight info

Callsign PRNPB
Flight time N/A
Altitude FL060
Route DCT
Aircraft B429/L-S/N

Departure

Time N/A
Airport Juquehy Baleia Heliport (SDJD)

Arrival

Time 2026-05-03 22:08
Airport Campo de Marte Airport (SBMT)
Time Latitude Longitude Altitude Speed Heading
2026-05-03 21:36 -23.18546 -46.94064 2487 ft 0 kts 157°
2026-05-03 21:42 -23.18546 -46.94063 2610 ft 0 kts 51°
2026-05-03 21:43 -23.18545 -46.94065 2785 ft 1 kts 359°
2026-05-03 21:43 -23.18542 -46.94069 2736 ft 1 kts 338°
2026-05-03 21:43 -23.18541 -46.94071 2684 ft 1 kts 332°
2026-05-03 21:43 -23.18540 -46.94077 2504 ft 1 kts 312°
2026-05-03 21:44 -23.18540 -46.94078 2487 ft 0 kts 309°
2026-05-03 21:44 -23.18542 -46.94076 2487 ft 1 kts 294°
2026-05-03 21:44 -23.18547 -46.94064 2487 ft 0 kts 289°
2026-05-03 21:45 -23.18548 -46.94064 2487 ft 0 kts 287°
2026-05-03 21:45 -23.18547 -46.94066 2487 ft 0 kts 283°
2026-05-03 21:46 -23.18547 -46.94067 2487 ft 0 kts 276°
2026-05-03 21:47 -23.18521 -46.94088 2488 ft 5 kts 353°
2026-05-03 21:47 -23.18506 -46.94093 2488 ft 1 kts 338°
2026-05-03 21:48 -23.18450 -46.94122 2488 ft 10 kts 333°
2026-05-03 21:48 -23.18409 -46.94113 2488 ft 6 kts 321°
2026-05-03 21:48 -23.18406 -46.94124 2488 ft 0 kts 242°
2026-05-03 21:50 -23.18405 -46.94121 2505 ft 2 kts 216°
2026-05-03 21:50 -23.18411 -46.94121 2504 ft 5 kts 179°
2026-05-03 21:50 -23.18472 -46.94077 2537 ft 12 kts 193°
2026-05-03 21:50 -23.18531 -46.94049 2541 ft 7 kts 200°
2026-05-03 21:51 -23.18577 -46.94051 2522 ft 5 kts 210°
2026-05-03 21:51 -23.18619 -46.94062 2511 ft 7 kts 229°
2026-05-03 21:51 -23.18639 -46.94086 2505 ft 1 kts 247°
2026-05-03 21:51 -23.18641 -46.94092 2506 ft 4 kts 248°
2026-05-03 21:52 -23.18650 -46.94108 2507 ft 1 kts 290°
2026-05-03 21:52 -23.18539 -46.94180 2546 ft 51 kts 331°
2026-05-03 21:52 -23.18084 -46.94384 2551 ft 86 kts 336°
2026-05-03 21:52 -23.17455 -46.94668 2518 ft 105 kts 338°
2026-05-03 21:53 -23.16789 -46.94960 2574 ft 110 kts 338°
2026-05-03 21:53 -23.16076 -46.95272 2652 ft 110 kts 338°
2026-05-03 21:53 -23.15363 -46.95584 2732 ft 111 kts 338°
2026-05-03 21:53 -23.14648 -46.95896 2821 ft 111 kts 338°
2026-05-03 21:54 -23.13938 -46.96207 2918 ft 110 kts 338°
2026-05-03 21:54 -23.13240 -46.96536 3016 ft 109 kts 330°
2026-05-03 21:54 -23.12838 -46.97174 3089 ft 103 kts 277°
2026-05-03 21:54 -23.13088 -46.97850 3195 ft 98 kts 221°
2026-05-03 21:55 -23.13701 -46.98031 3316 ft 96 kts 178°
2026-05-03 21:55 -23.14370 -46.97936 3437 ft 98 kts 169°
2026-05-03 21:55 -23.15041 -46.97750 3538 ft 101 kts 162°
2026-05-03 21:55 -23.15701 -46.97471 3631 ft 103 kts 155°
2026-05-03 21:56 -23.16333 -46.97094 3725 ft 104 kts 148°
2026-05-03 21:56 -23.16940 -46.96664 3821 ft 105 kts 145°
2026-05-03 21:56 -23.17530 -46.96202 3919 ft 104 kts 143°
2026-05-03 21:56 -23.18105 -46.95714 3996 ft 107 kts 141°
2026-05-03 21:57 -23.18672 -46.95205 4014 ft 112 kts 140°
2026-05-03 21:57 -23.19289 -46.94623 3999 ft 116 kts 138°
2026-05-03 21:57 -23.19893 -46.94032 3989 ft 117 kts 137°
2026-05-03 21:57 -23.20485 -46.93436 3991 ft 117 kts 137°
2026-05-03 21:58 -23.21074 -46.92831 3997 ft 117 kts 136°
2026-05-03 21:58 -23.21659 -46.92223 4000 ft 117 kts 136°
2026-05-03 21:58 -23.22262 -46.91591 4184 ft 133 kts 136°
2026-05-03 21:58 -23.22961 -46.90854 4084 ft 144 kts 136°
2026-05-03 21:59 -23.23682 -46.90096 4008 ft 144 kts 136°
2026-05-03 21:59 -23.24399 -46.89347 3986 ft 142 kts 136°
2026-05-03 21:59 -23.25111 -46.88608 3989 ft 141 kts 136°
2026-05-03 21:59 -23.25817 -46.87879 3995 ft 141 kts 136°
2026-05-03 22:00 -23.26532 -46.87144 4000 ft 141 kts 136°
2026-05-03 22:00 -23.27244 -46.86416 4001 ft 141 kts 137°
2026-05-03 22:00 -23.27963 -46.85685 4001 ft 141 kts 137°
2026-05-03 22:00 -23.28683 -46.84961 4000 ft 141 kts 137°
2026-05-03 22:01 -23.29409 -46.84244 4000 ft 141 kts 138°
2026-05-03 22:01 -23.30137 -46.83534 4000 ft 141 kts 138°
2026-05-03 22:01 -23.30872 -46.82822 4000 ft 141 kts 138°
2026-05-03 22:01 -23.31605 -46.82118 4000 ft 141 kts 139°
2026-05-03 22:02 -23.32344 -46.81410 4000 ft 141 kts 139°
2026-05-03 22:02 -23.33081 -46.80705 4000 ft 141 kts 139°
2026-05-03 22:02 -23.33822 -46.79999 4000 ft 141 kts 139°
2026-05-03 22:02 -23.34560 -46.79296 4000 ft 141 kts 139°
2026-05-03 22:03 -23.35298 -46.78593 4000 ft 141 kts 139°
2026-05-03 22:03 -23.36039 -46.77888 4000 ft 141 kts 139°
2026-05-03 22:03 -23.36777 -46.77186 4000 ft 141 kts 139°
2026-05-03 22:03 -23.37516 -46.76483 4000 ft 142 kts 139°
2026-05-03 22:04 -23.38256 -46.75778 4000 ft 142 kts 139°
2026-05-03 22:04 -23.38970 -46.75099 4000 ft 142 kts 139°
2026-05-03 22:04 -23.39735 -46.74371 4000 ft 142 kts 139°
2026-05-03 22:04 -23.40473 -46.73669 4000 ft 142 kts 139°
2026-05-03 22:05 -23.41215 -46.72963 4000 ft 142 kts 139°
2026-05-03 22:05 -23.41869 -46.72340 4000 ft 142 kts 139°
2026-05-03 22:05 -23.42610 -46.71635 4000 ft 142 kts 139°
2026-05-03 22:05 -23.43349 -46.70931 4000 ft 142 kts 139°
2026-05-03 22:06 -23.44090 -46.70226 4000 ft 142 kts 139°
2026-05-03 22:06 -23.44838 -46.69537 4020 ft 139 kts 141°
2026-05-03 22:06 -23.45603 -46.68884 3768 ft 140 kts 144°
2026-05-03 22:06 -23.46424 -46.68307 3324 ft 141 kts 150°
2026-05-03 22:07 -23.47234 -46.67778 3128 ft 125 kts 147°
2026-05-03 22:07 -23.47941 -46.67353 3191 ft 112 kts 153°
2026-05-03 22:07 -23.48633 -46.66999 3159 ft 109 kts 155°
2026-05-03 22:07 -23.49319 -46.66630 3041 ft 106 kts 152°
2026-05-03 22:08 -23.49865 -46.66294 3003 ft 76 kts 147°
2026-05-03 22:08 -23.50184 -46.66001 2885 ft 50 kts 131°
2026-05-03 22:08 -23.50374 -46.65715 2734 ft 46 kts 121°
2026-05-03 22:08 -23.50549 -46.65355 2665 ft 59 kts 115°
2026-05-03 22:09 -23.50681 -46.64980 2576 ft 37 kts 105°
2026-05-03 22:09 -23.50728 -46.64794 2494 ft 16 kts 102°
2026-05-03 22:09 -23.50777 -46.64702 2453 ft 13 kts 101°
2026-05-03 22:10 -23.50879 -46.64667 2553 ft 20 kts 98°
2026-05-03 22:10 -23.50922 -46.64468 2510 ft 33 kts 97°
2026-05-03 22:10 -23.50949 -46.64232 2471 ft 30 kts 97°
2026-05-03 22:10 -23.50981 -46.64014 2431 ft 28 kts 99°
2026-05-03 22:11 -23.51013 -46.63805 2393 ft 28 kts 99°
2026-05-03 22:11 -23.51043 -46.63615 2385 ft 21 kts 99°
2026-05-03 22:11 -23.51059 -46.63496 2380 ft 11 kts 98°
2026-05-03 22:11 -23.51070 -46.63419 2380 ft 10 kts 106°
2026-05-03 22:12 -23.51104 -46.63357 2381 ft 8 kts 153°
2026-05-03 22:12 -23.51148 -46.63347 2378 ft 8 kts 171°
2026-05-03 22:12 -23.51205 -46.63334 2381 ft 7 kts 167°
2026-05-03 22:12 -23.51262 -46.63324 2378 ft 10 kts 165°
2026-05-03 22:13 -23.51334 -46.63308 2381 ft 11 kts 168°
2026-05-03 22:13 -23.51390 -46.63318 2378 ft 7 kts 206°
2026-05-03 22:13 -23.51463 -46.63361 2393 ft 14 kts 227°
2026-05-03 22:13 -23.51510 -46.63480 2410 ft 13 kts 245°
2026-05-03 22:14 -23.51526 -46.63553 2415 ft 7 kts 248°
2026-05-03 22:14 -23.51535 -46.63592 2395 ft 9 kts 248°
2026-05-03 22:14 -23.51536 -46.63649 2385 ft 5 kts 254°
2026-05-03 22:14 -23.51535 -46.63664 2371 ft 0 kts 251°
2026-05-03 22:15 -23.51535 -46.63665 2371 ft 0 kts 251°
2026-05-03 22:15 -23.51536 -46.63665 2371 ft 0 kts 251°